Date String (YYYY-MM-DD hh:mm:ss) UTC,Instrument flags,Ambient pressure (hPa),Sample flow (lpm),Bypass flow (lpm),Sample temperature (°C),Ambient temperature (°C),ASC tube jacket temperature (°C),LED temperature (°C),Box temperature (°C),Sample RH (%),Span deviation,Mass concentration (μg/m³),Mass concentration (μg/m³),Mass concentration (μg/m³)
DateTimeUTC,F1_M11,P_M11,Q1_M11,Q2_M11,T1_M11,T2_M11,T3_M11,T4_M11,T5_M11,U1_M11,ZSPAN_M11,X0_M11,X2_M11,X1_M11
2021-11-16 13:00:00,,0817.5,5.00,0.00,29.0,28.0,00.0,38.1,30.8,08.3,0000.0,0002.30,0000.61,0000.29
2021-11-16 13:01:00,,0817.4,4.99,0.00,29.0,28.0,00.0,38.1,30.7,08.3,0000.0,0002.27,0000.60,0000.29
2021-11-16 13:02:00,,0817.2,4.99,0.00,29.0,28.0,00.0,38.1,30.8,08.4,0000.0,0002.26,0000.59,0000.28
2021-11-16 13:03:00,,0817.2,5.00,0.00,29.0,28.0,00.0,38.1,30.8,08.0,0000.0,0002.10,0000.55,0000.28
2021-11-16 13:04:00,,0817.1,5.02,0.00,29.0,27.9,00.0,38.1,30.8,07.8,0000.0,0002.18,0000.56,0000.28
2021-11-16 13:05:00,,0817.1,5.00,0.00,29.0,27.9,00.0,38.1,30.8,07.5,0000.0,0002.28,0000.59,0000.29
2021-11-16 13:06:00,,0817.1,4.99,0.00,29.0,27.9,00.0,38.1,30.7,07.8,0000.0,0002.36,0000.59,0000.29
2021-11-16 13:07:00,,0817.1,5.01,0.00,29.0,27.9,00.0,38.1,30.7,07.6,0000.0,0002.47,0000.60,0000.28
2021-11-16 13:08:00,,0817.4,4.99,0.00,29.0,27.9,00.0,38.1,30.7,07.8,0000.0,0002.73,0000.62,0000.28
2021-11-16 13:09:00,,0817.5,5.00,0.00,29.0,27.9,00.0,38.1,30.8,08.0,0000.0,0002.18,0000.60,0000.27
2021-11-16 13:10:00,,0817.1,5.02,0.00,29.0,27.9,00.0,38.1,30.7,07.5,0000.0,0002.06,0000.59,0000.26
2021-11-16 13:11:00,,0817.0,5.00,0.00,29.0,28.0,00.0,38.1,30.7,07.4,0000.0,0001.82,0000.59,0000.25
2021-11-16 13:12:00,,0816.9,5.01,0.00,29.0,28.0,00.0,38.0,30.7,07.7,0000.0,0001.97,0000.63,0000.25
2021-11-16 13:13:00,,0817.1,5.00,0.00,29.0,27.9,00.0,38.0,30.7,07.9,0000.0,0002.15,0000.67,0000.26
2021-11-16 13:14:00,,0817.1,4.99,0.00,29.0,28.0,00.0,38.0,30.7,08.2,0000.0,0002.13,0000.67,0000.26
2021-11-16 13:15:00,,0817.1,5.02,0.00,29.0,28.0,00.0,38.0,30.7,08.4,0000.0,0002.09,0000.67,0000.26
2021-11-16 13:16:00,,0817.1,5.01,0.00,29.0,28.0,00.0,38.0,30.7,08.5,0000.0,0002.43,0000.65,0000.26
2021-11-16 13:17:00,,0817.0,5.00,0.00,28.9,28.0,00.0,38.0,30.7,08.5,0000.0,0003.29,0000.65,0000.26
2021-11-16 13:18:00,,0817.0,5.00,0.00,28.9,27.9,00.0,38.0,30.7,08.1,0000.0,0004.13,0000.64,0000.26
2021-11-16 13:19:00,,0816.9,5.00,0.00,28.9,27.9,00.0,38.0,30.7,08.1,0000.0,0004.30,0000.61,0000.26
2021-11-16 13:20:00,,0817.0,5.01,0.00,28.9,27.9,00.0,38.0,30.7,08.3,0000.0,0004.25,0000.58,0000.26
2021-11-16 13:21:00,,0817.0,5.00,0.00,28.9,27.9,00.0,38.0,30.7,08.4,0000.0,0004.22,0000.56,0000.26
2021-11-16 13:22:00,,0817.3,5.00,0.00,28.9,27.9,00.0,38.0,30.7,08.5,0000.0,0004.17,0000.54,0000.26
2021-11-16 13:23:00,,0817.3,5.00,0.00,28.9,27.9,00.0,38.0,30.6,08.5,0000.0,0004.02,0000.50,0000.26
2021-11-16 13:24:00,,0817.3,5.00,0.00,28.9,27.9,00.0,38.0,30.6,08.6,0000.0,0003.84,0000.46,0000.26
2021-11-16 13:25:00,,0817.4,4.99,0.00,28.9,27.9,00.0,38.0,30.6,08.6,0000.0,0003.79,0000.44,0000.26
2021-11-16 13:26:00,,0817.4,5.00,0.00,28.9,27.9,00.0,38.0,30.6,08.6,0000.0,0003.73,0000.41,0000.25
2021-11-16 13:27:00,,0817.2,5.01,0.00,28.9,27.9,00.0,38.0,30.6,08.6,0000.0,0003.28,0000.41,0000.25
2021-11-16 13:28:00,,0817.3,5.00,0.00,28.9,27.9,00.0,38.0,30.6,08.6,0000.0,0002.36,0000.40,0000.25
2021-11-16 13:29:00,,0817.4,5.00,0.00,28.9,27.9,00.0,37.9,30.6,08.5,0000.0,0001.35,0000.40,0000.25
2021-11-16 13:30:00,,0817.4,5.00,0.00,28.9,27.9,00.0,37.9,30.6,08.5,0000.0,0001.07,0000.44,0000.25
2021-11-16 13:31:00,,0817.3,4.99,0.00,28.9,27.9,00.0,37.9,30.6,08.6,0000.0,0001.21,0000.49,0000.25
2021-11-16 13:32:00,,0817.4,5.01,0.00,28.9,27.8,00.0,37.9,30.6,08.6,0000.0,0001.25,0000.51,0000.25
2021-11-16 13:33:00,,0817.2,4.99,0.00,28.9,27.8,00.0,37.9,30.5,08.6,0000.0,0001.23,0000.51,0000.26
2021-11-16 13:34:00,,0817.3,5.00,0.00,28.9,27.8,00.0,37.9,30.5,08.6,0000.0,0001.48,0000.52,0000.25
2021-11-16 13:35:00,,0817.3,5.00,0.00,28.8,27.8,00.0,37.9,30.6,08.5,0000.0,0001.80,0000.52,0000.25
2021-11-16 13:36:00,,0817.2,5.00,0.00,28.8,27.8,00.0,37.9,30.5,08.4,0000.0,0001.81,0000.53,0000.25
2021-11-16 13:37:00,,0817.1,4.99,0.00,28.8,27.9,00.0,37.9,30.5,08.3,0000.0,0001.84,0000.54,0000.26
2021-11-16 13:38:00,,0816.8,5.00,0.00,28.8,27.8,00.0,37.9,30.6,08.5,0000.0,0002.12,0000.55,0000.26
2021-11-16 13:39:00,,0817.0,5.01,0.00,28.8,27.8,00.0,37.9,30.6,08.4,0000.0,0002.61,0000.59,0000.26
2021-11-16 13:40:00,,0817.2,5.00,0.00,28.8,27.8,00.0,37.9,30.6,08.4,0000.0,0003.49,0000.66,0000.27
2021-11-16 13:41:00,,0817.3,5.01,0.00,28.8,27.8,00.0,37.9,30.5,08.3,0000.0,0003.32,0000.63,0000.27
2021-11-16 13:42:00,,0817.2,4.99,0.00,28.8,27.7,00.0,37.9,30.5,08.1,0000.0,0003.17,0000.59,0000.27
2021-11-16 13:43:00,,0817.2,5.00,0.00,28.8,27.8,00.0,37.9,30.5,08.2,0000.0,0003.08,0000.55,0000.27
2021-11-16 13:44:00,,0817.3,5.01,0.00,28.8,27.8,00.0,37.9,30.5,08.4,0000.0,0003.11,0000.57,0000.27
2021-11-16 13:45:00,,0817.1,4.99,0.00,28.8,27.8,00.0,37.9,30.5,08.4,0000.0,0002.97,0000.57,0000.27
2021-11-16 13:46:00,,0817.3,5.00,0.00,28.8,27.7,00.0,37.9,30.5,08.4,0000.0,0002.63,0000.59,0000.27
2021-11-16 13:47:00,,0817.5,5.01,0.00,28.8,27.7,00.0,37.9,30.5,08.2,0000.0,0002.64,0000.60,0000.27
2021-11-16 13:48:00,,0817.4,4.99,0.00,28.8,27.8,00.0,37.8,30.4,08.5,0000.0,0002.67,0000.62,0000.27
2021-11-16 13:49:00,,0817.5,4.99,0.00,28.8,27.8,00.0,37.8,30.4,08.5,0000.0,0002.41,0000.60,0000.27
2021-11-16 13:50:00,,0817.4,5.01,0.00,28.7,27.8,00.0,37.8,30.5,08.4,0000.0,0001.82,0000.54,0000.26
2021-11-16 13:51:00,,0817.3,5.00,0.00,28.7,27.7,00.0,37.8,30.4,08.4,0000.0,0000.95,0000.47,0000.25
2021-11-16 13:52:00,,0817.3,5.00,0.00,28.7,27.7,00.0,37.8,30.5,08.3,0000.0,0000.91,0000.50,0000.25
2021-11-16 13:53:00,,0817.5,5.01,0.00,28.7,27.7,00.0,37.8,30.4,08.3,0000.0,0000.94,0000.52,0000.25
2021-11-16 13:54:00,,0817.3,5.00,0.00,28.7,27.7,00.0,37.8,30.4,08.3,0000.0,0001.12,0000.57,0000.26
2021-11-16 13:55:00,,0817.4,5.00,0.00,28.7,27.7,00.0,37.8,30.5,08.1,0000.0,0001.09,0000.54,0000.26
2021-11-16 13:56:00,,0817.4,4.99,0.00,28.7,27.7,00.0,37.8,30.5,08.2,0000.0,0001.08,0000.54,0000.26
2021-11-16 13:57:00,,0817.3,5.00,0.00,28.7,27.7,00.0,37.8,30.5,08.4,0000.0,0001.06,0000.52,0000.26
2021-11-16 13:58:00,,0817.2,5.00,0.00,28.7,27.7,00.0,37.8,30.5,08.5,0000.0,0001.07,0000.53,0000.26
2021-11-16 13:59:00,,0817.2,5.01,0.00,28.7,27.7,00.0,37.8,30.5,08.3,0000.0,0001.29,0000.58,0000.27
